This is the latest recevied weather packets stored in our database for station/object DPX206-15. If no packets are shown the sender has not sent any weather packets the latest 10 day(s).
| Time | Temp. | Humidity | Pressure | Rain* | Wind** | Luminosity | Snow |
|---|---|---|---|---|---|---|---|
| 1778081677 | 11.11° C | 94% | 1007.2 hPa | 0 mm | - | 25 W/m² | - |
| 1778080927 | 11.11° C | 94% | 1007.2 hPa | 0 mm | - | 34 W/m² | - |
| 1778080177 | 11.11° C | 94% | 1007.4 hPa | 0 mm | - | 36 W/m² | - |
| 1778079427 | 11.11° C | 94% | 1007.1 hPa | 0.25 mm | - | 44 W/m² | - |
| 1778078676 | 11.11° C | 94% | 1007.2 hPa | 0.51 mm | - | 44 W/m² | - |
| 1778077926 | 11.11° C | 94% | 1007.3 hPa | 0.51 mm | - | 51 W/m² | - |
| 1778077176 | 11.11° C | 94% | 1007.3 hPa | 0.51 mm | - | 48 W/m² | - |
| 1778076426 | 10.56° C | 94% | 1007.6 hPa | 0.51 mm | - | 75 W/m² | - |
| 1778075676 | 10.56° C | 94% | 1007.4 hPa | 0.51 mm | - | 39 W/m² | - |
| 1778074926 | 11.11° C | 94% | 1007.4 hPa | 0.51 mm | - | 30 W/m² | - |
| 1778074175 | 11.11° C | 94% | 1007.2 hPa | 0.51 mm | - | 33 W/m² | - |
| 1778073424 | 11.11° C | 94% | 1007.3 hPa | 1.02 mm | - | 73 W/m² | - |
| 1778072674 | 10.56° C | 94% | 1007.4 hPa | 1.02 mm | - | 120 W/m² | - |
| 1778071924 | 10.56° C | 94% | 1006.9 hPa | 0.76 mm | - | 62 W/m² | - |
| 1778071174 | 10.56° C | 94% | 1007.3 hPa | 0.51 mm | - | 45 W/m² | - |
| 1778070424 | 10.56° C | 94% | 1007.2 hPa | 0.51 mm | - | 37 W/m² | - |
| 1778069673 | 10.56° C | 94% | 1007.3 hPa | 0.25 mm | - | 31 W/m² | - |
| 1778068923 | 10.56° C | 94% | 1007 hPa | 0.51 mm | - | 62 W/m² | - |
| 1778068173 | 10.56° C | 94% | 1007 hPa | 1.02 mm | - | 68 W/m² | - |
| 1778067423 | 10.56° C | 94% | 1007 hPa | 1.02 mm | - | 89 W/m² | - |
| 1778066673 | 10.56° C | 94% | 1007.2 hPa | 0.76 mm | - | 86 W/m² | - |
| 1778065922 | 10.56° C | 94% | 1007 hPa | 0.51 mm | - | 94 W/m² | - |
| 1778065172 | 10.56° C | 94% | 1007.2 hPa | 0.25 mm | - | 95 W/m² | - |
| 1778064422 | 10.56° C | 94% | 1007 hPa | 0 mm | - | 71 W/m² | - |
| 1778063672 | 10.56° C | 94% | 1007 hPa | 0 mm | - | 44 W/m² | - |
* Rain latest hour (hover to see other rain measurements)
** Current wind speed in m/s (hover to see current wind gust speed)